Regional Weather Roundup
Issued by NWS

Home | Current Version | Previous Version | Text Only | Print | Product List | Glossary Off
Versions: 1 2 3 4 5 6 7 8 9 10 11 12 13 14 15 16 17 18 19 20 21 22 23 24 25 26 27 28 29 30 31 32 33 34 35 36 37 38 39 40 41 42 43 44 45 46 47 48 49 50

000
ASUS45 KPSR 172310
RWRAZ

ARIZONA REGIONAL HOURLY WEATHER ROUNDUP
NATIONAL WEATHER SERVICE PHOENIX AZ
400 PM MST WED DEC 17 2014

NOTE: FAIR INDICATES FEW OR NO CLOUDS BELOW 12,000 FEET WITH NO
SIGNIFICANT WEATHER AND/OR OBSTRUCTIONS TO VISIBILITY.

AZZ001>003-036-180000-
NORTHWEST ARIZONA

CITY           SKY/WX    TMP DP  RH WIND       PRES   REMARKS
BULLHEAD CITY  CLOUDY    55  48  76 SW3       30.06R
KINGMAN        LGT RAIN  45  40  82 SW13      30.03R
$$

AZZ004>008-015-016-018-180000-
NORTH CENTRAL ARIZONA

CITY           SKY/WX    TMP DP  RH WIND       PRES   REMARKS
GRAND CANYON   FLURRIES  34  31  88 W6        30.01S WCI  29
PRESCOTT       CLOUDY    41  33  73 SW7       30.04R
FLAGSTAFF      PTSUNNY   34  28  79 SW7       30.02R WCI  28
PAYSON         PTSUNNY   39  37  93 VRB5      30.07S
PAGE           CLOUDY    42  36  79 NE5       30.00R
$$

AZZ009>014-017-180000-
NORTHEAST ARIZONA

CITY           SKY/WX    TMP DP  RH WIND       PRES   REMARKS
WINSLOW        CLOUDY    44  34  67 SW12      30.02R
SAINT JOHNS    PTSUNNY   42  32  67 SW22G28   30.02R
WINDOW ROCK    CLOUDY    37  29  72 W10       30.00R WCI  30
SHOW LOW       LGT RAIN  32  30  93 S15       30.07R WCI  22
$$

AZZ023-180000-
GREATER PHOENIX AREA

CITY           SKY/WX    TMP DP  RH WIND       PRES   REMARKS
PHOENIX        PTSUNNY   60  44  55 W5        30.04S
BUCKEYE          N/A     59  46  63 NW7       30.06S
GLENDALE       PTSUNNY   59  46  63 VRB6      30.07R
LUKE AFB       PTSUNNY   59  46  62 SW6       30.05S
DEER VALLEY    CLOUDY    55  45  68 W6        30.05R
SCOTTSDALE     CLOUDY    56  47  71 CALM      30.07R
MESA-GATEWAY   PTSUNNY   54  46  76 CALM      30.08R
CHANDLER       PTSUNNY   57  48  72 VRB6      30.06R
$$

AZZ027-028-180000-
SOUTHWEST MARICOPA COUNTY AND PINAL COUNTY

CITY           SKY/WX    TMP DP  RH WIND       PRES   REMARKS
CASA GRANDE    PTSUNNY   55  46  71 CALM      30.06S
GILA BEND      MOCLDY    58  50  75 CALM      30.07R
$$

AZZ503-504-507>509-180000-
SOUTHEAST ARIZONA

CITY           SKY/WX    TMP DP  RH WIND       PRES   REMARKS
TUCSON         CLOUDY    57  45  64 N7        30.06S
DAVIS-MONTHAN  PTSUNNY   55  46  71 N10       30.04R
RYAN FIELD       N/A     57  52  82 W6        30.06R
NOGALES        CLOUDY    53  40  61 S14       30.08R
SIERRA VISTA   PTSUNNY   52  36  54 W16       30.07R
DOUGLAS        MOSUNNY   55  34  45 SW23      30.07S
SAFFORD        RAIN      49  45  86 SW12      30.05R FOG
$$

AZZ020-021-025-026-031-180000-
SOUTHWEST ARIZONA

CITY           SKY/WX    TMP DP  RH WIND       PRES   REMARKS
YUMA           MOSUNNY  N/A N/A N/A S5        30.04R
$$

CAZ031-033-041-043-047-048-061-180000-
SOUTHERN CALIFORNIA

CITY           SKY/WX    TMP DP  RH WIND       PRES   REMARKS
DOWNTOWN L.A.  PTSUNNY   61  45  55 VRB6      30.05R
L.A. AIRPORT   CLOUDY    60  45  57 W15       30.06S
SAN DIEGO      PTSUNNY   64  47  53 W13       30.10R
BURBANK        PTSUNNY   59  43  55 S10       30.04S
ONTARIO        CLOUDY    59  46  62 NW8       30.05R
RIVERSIDE      CLOUDY    60  47  61 VRB3      30.05R
PALM SPRINGS   MOSUNNY   59  46  62 E3        30.05S
EL CENTRO NAS  PTSUNNY   64  49  57 CALM      30.03R
IMPERIAL       SUNNY     63  51  65 E3        30.02S
BLYTHE         LGT RAIN  56  50  80 E6        30.03S
NEEDLES        PTSUNNY   58  47  66 SE3       30.03S
$$

NVZ020-UTZ003-180000-
SOUTHERN NEVADA-UTAH

CITY           SKY/WX    TMP DP  RH WIND       PRES   REMARKS
LAS VEGAS      CLOUDY    53  39  59 CALM      29.97S
SALT LAKE CITY MOCLDY    40  31  70 W3        29.98S
$$

NMZ009-TXZ055-180000-
NEW MEXICO-WEST TEXAS

CITY           SKY/WX    TMP DP  RH WIND       PRES   REMARKS
ALBUQUERQUE    LGT RAIN  42  36  79 SW8       30.00R
EL PASO        MOSUNNY   59  30  33 W20G29    30.01R
$$


........................KEY........................
SKY/WX - SKY CONDITION/WEATHER
TMP    - TEMPERATURE IN FAHRENHEIT
DP     - DEW POINT IN FAHRENHEIT
RH     - RELATIVE HUMIDITY IN PERCENT
WIND   - DIRECTION AND SPEED IN MILES PER HOUR (MPH)
VRB    - VARIABLE WIND DIRECTION
PRES   - MEAN SEA LEVEL PRESSURE IN INCHES OF MERCURY
         F - FALLING PRESSURE   R - RISING PRESSURE
         S - STEADY PRESSURE
VSB    - VISIBILITY IN MILES
HX     - HEAT INDEX IN FAHRENHEIT
WCI    - WIND CHILL INDEX IN FAHRENHEIT
TC     - TEMPERATURE IN CELSIUS WHICH IS ALSO KNOWN AS
         TEMPERATURE IN CENTIGRADE
AFB    - AIR FORCE BASE
         LUKE AFB IS LUKE AIR FORCE BASE
         DAVIS-MONTHAN IS DAVIS-MONTHAN AIR FORCE BASE
NAS    - NAVAL AIR STATION
         EL CENTRO NAS IS EL CENTRO NAVAL AIR STATION
N/A    - NOT AVAILABLE


USA.gov is the U.S. government's official web portal to all federal, state and local government web resources and services.